Regional Weather Roundup
Issued by NWS

Home | Current Version | Previous Version | Text Only | Print | Product List | Glossary Off
Versions: 1 2 3 4 5 6 7 8 9 10 11 12 13 14 15 16 17 18 19 20 21 22 23 24 25 26 27 28 29 30 31 32 33 34 35 36 37 38 39 40 41 42 43 44 45 46 47 48 49 50

981
ASUS44 KLIX 290810
RWRLA
LOUISIANA WEATHER ROUNDUP
NATIONAL WEATHER SERVICE NEW ORLEANS LA
300 AM CDT FRI AUG 29 2014

NOTE: "FAIR" INDICATES FEW OR NO CLOUDS BELOW 12,000 FEET WITH NO
      SIGNIFICANT WEATHER AND/OR OBSTRUCTIONS TO VISIBILITY.
      SKY/WX - SKY CONDITION AND SIGNIFICANT WEATHER.
      TMP - AIR TEMPERATURE.    DP   - DEWPOINT TEMPERATURE.
      RH  - RELATIVE HUMIDITY.  PRES - PRESSURE.
      HX  - HEAT INDEX.         WCI  - WIND CHILL INDEX.

*  THESE STATIONS ARE NOT NWS OR FAA STATIONS AND ARE NOT UNDER
   NWS QUALITY CONTROL.

LAZ040-048-061>063-065-066-069-290900-
SOUTHEAST LOUISIANA

CITY           SKY/WX    TMP DP  RH WIND       PRES   REMARKS
N.O. AUDUBON     N/A     78  78  98 MISG        N/A
N.O. INTL ARPT PTCLDY    78  73  84 CALM      29.94F
N.O. LAKEFRONT CLEAR     81  74  79 SE5       29.95S
N.O. DOWNTOWN* FAIR      82  70  65 SE3       29.95S
SLIDELL        CLEAR     73  70  90 CALM      29.95S
BATON ROUGE    MOCLDY    75  73  93 NE5       29.94F
BOOTHVILLE     MOCLDY    82  77  84 E3        29.94S
BELLE CHASSE   PTCLDY    75  72  90 CALM      29.94S
BOGALUSA*        N/A     74  70  89 CALM      29.97F
GALLIANO*      NOT AVBL
NEW ROADS*     FAIR      75  74  97 CALM      29.94S
GONZALES*      FAIR      74  74 100 CALM      29.94S FOG
HAMMOND*       MOCLDY    75  72  88 CALM      29.97S
HOUMA*         PTCLDY    75  72  88 NE3       29.93F
PORT FOURCHON* MOSUNNY   84  75  74 SE10      29.93F

$$

LAZ041-044-053-054-290900-
SOUTHWEST LOUISIANA

CITY           SKY/WX    TMP DP  RH WIND       PRES   REMARKS
LAKE CHARLES   PTCLDY    77  75  93 E5        29.91F
LAFAYETTE      MOCLDY    77  75  93 E3        29.93F
PATTERSON        N/A     75  73  94 E3        29.96S
SALT POINT       N/A     79  76  90 CALM      29.91F
NEW IBERIA     MOCLDY    78  75  90 E6        29.93F
CHENAULT AIRPK PTCLDY    77  74  90 E5        29.92F

$$

LAZ027-028-290900-
CENTRAL LOUISIANA

CITY           SKY/WX    TMP DP  RH WIND       PRES   REMARKS
FORT POLK      CLEAR     75  73  93 CALM      29.93F
ALEXANDRIA INT PTCLDY    76  73  91 CALM      29.92F
ALEXANDRIA     CLEAR     75  72  90 CALM      29.94F

$$

LAZ001-002-290900-
NORTHWEST LOUISIANA

CITY           SKY/WX    TMP DP  RH WIND       PRES   REMARKS
SHREVEPORT     MOCLDY    79  72  79 S5        29.91F
BARKSDALE AFB  CLOUDY    76  71  84 SE6       29.91F
DTN SHREVEPORT MOCLDY    79  73  82 SE3       29.91F

$$

LAZ014-016-290900-
NORTHEAST LOUISIANA

CITY           SKY/WX    TMP DP  RH WIND       PRES   REMARKS
MONROE         CLEAR     75  71  87 CALM      29.94F
TALLULAH       CLEAR     72  71  97 CALM      29.95F

$$




USA.gov is the U.S. government's official web portal to all federal, state and local government web resources and services.